Weather History for KVWU - March, 2014

Change the Weather History Date:

Sunday, March 9, 2014

  Actual Average (KBDE) Record (KBDE)
Temperature  
Mean Temperature 32 °F -  
Max Temperature 42 °F 31 °F 54 °F (1977)
Min Temperature 21 °F 6 °F -24 °F (1944)
Degree Days  
Heating Degree Days 34    
Moisture  
Dew Point 27 °F    
Average Humidity 76    
Maximum Humidity 93    
Minimum Humidity 61    
Precipitation  
Precipitation 0.00 in - - ()
Sea Level Pressure  
Sea Level Pressure 29.61 in    
Wind  
Wind Speed 8 mph (SSW)    
Max Wind Speed 13 mph    
Max Gust Speed 17 mph    
Visibility 10 miles    
Events      
Averages and records for this station are not official NWS values.
T = Trace of Precipitation, MM = Missing Value Source: NWS Daily Summary

Daily Weather History Graph

Daily Weather History Graph

Search for Another Location

Airport or City:

Trip Planner

Search our weather history database for the weather conditions in past years. The results will help you decide how hot, cold, wet, or windy it might be!

Date:

Astronomy

Mar. 09, 2014 Rise Set
Actual Time 7:43 AM CDT 7:14 PM CDT
Civil Twilight 7:12 AM CDT 7:45 PM CDT
Nautical Twilight 6:36 AM CDT 8:21 PM CDT
Astronomical Twilight 5:59 AM CDT 8:58 PM CDT
Moon 12:48 PM CDT (3/9) 3:29 AM CDT (3/9)
Length of Visible Light 12h 33m
Length of Day
11h 31m
First Quarter, 61% of the Moon is Illuminated
Mar 9
First Quarter
Mar 16
Full
Mar 23
Last Quarter
Mar 30
New
Apr 7
First Quarter

Hourly Weather History & Observations

Time (CDT) Temp. Windchill Dew Point Humidity Pressure Visibility Wind Dir Wind Speed Gust Speed Precip Events Conditions
12:12 AM 21.2 °F 13.6 °F 12.2 °F 68% 29.90 in 10.0 mi South 5.8 mph - N/A   Clear
12:33 AM 21.2 °F 9.5 °F 14.0 °F 74% 29.87 in 10.0 mi South 11.5 mph - N/A   Clear
12:53 AM 21.2 °F 12.6 °F 15.8 °F 80% 29.84 in 10.0 mi SSE 6.9 mph - N/A   Clear
1:13 AM 21.2 °F 10.9 °F 15.8 °F 80% 29.83 in 10.0 mi South 9.2 mph 16.1 mph N/A   Clear
1:33 AM 23.0 °F 13.1 °F 17.6 °F 80% 29.82 in 10.0 mi South 9.2 mph - N/A   Clear
1:53 AM 23.0 °F 14.7 °F 17.6 °F 80% 29.80 in 10.0 mi SSE 6.9 mph - N/A   Clear
3:12 AM 23.0 °F 15.8 °F 17.6 °F 80% 29.78 in 10.0 mi South 5.8 mph - N/A   Clear
3:33 AM 24.8 °F 16.9 °F 17.6 °F 74% 29.77 in 10.0 mi South 6.9 mph - N/A   Clear
3:53 AM 24.8 °F 19.1 °F 19.4 °F 80% 29.75 in 10.0 mi South 4.6 mph - N/A   Clear
4:12 AM 24.8 °F 16.9 °F 19.4 °F 80% 29.73 in 10.0 mi SSE 6.9 mph - N/A   Clear
4:33 AM 24.8 °F 16.9 °F 19.4 °F 80% 29.72 in 10.0 mi South 6.9 mph - N/A   Clear
4:53 AM 24.8 °F 17.9 °F 19.4 °F 80% 29.71 in 10.0 mi South 5.8 mph - N/A   Clear
5:12 AM 24.8 °F 17.9 °F 19.4 °F 80% 29.70 in 10.0 mi South 5.8 mph - N/A   Clear
5:33 AM 26.6 °F 18.2 °F 21.2 °F 80% 29.69 in 10.0 mi South 8.1 mph - N/A   Clear
5:53 AM 26.6 °F 17.5 °F 21.2 °F 80% 29.69 in 10.0 mi South 9.2 mph - N/A   Clear
6:12 AM 28.4 °F 19.1 °F 21.2 °F 74% 29.67 in 10.0 mi South 10.4 mph 16.1 mph N/A   Clear
6:33 AM 28.4 °F 18.5 °F 21.2 °F 74% 29.65 in 10.0 mi South 11.5 mph 16.1 mph N/A   Clear
6:53 AM 28.4 °F 20.4 °F 21.2 °F 74% 29.65 in 10.0 mi South 8.1 mph 17.3 mph N/A   Clear
7:12 AM 28.4 °F 22.2 °F 21.2 °F 74% 29.64 in 10.0 mi South 5.8 mph - N/A   Clear
7:33 AM 28.4 °F 21.2 °F 21.2 °F 74% 29.63 in 10.0 mi South 6.9 mph - N/A   Clear
7:53 AM 28.4 °F 19.7 °F 23.0 °F 80% 29.62 in 10.0 mi South 9.2 mph - N/A   Clear
8:12 AM 28.4 °F 22.2 °F 23.0 °F 80% 29.61 in 10.0 mi South 5.8 mph - N/A   Clear
8:33 AM 30.2 °F 22.6 °F 23.0 °F 75% 29.60 in 10.0 mi South 8.1 mph - N/A   Clear
8:53 AM 30.2 °F 24.3 °F 23.0 °F 75% 29.60 in 10.0 mi SSW 5.8 mph - N/A   Clear
9:12 AM 32.0 °F 25.6 °F 24.8 °F 75% 29.59 in 10.0 mi SSW 6.9 mph - N/A   Clear
9:33 AM 33.8 °F 27.0 °F 24.8 °F 70% 29.59 in 10.0 mi SSW 8.1 mph - N/A   Clear
9:53 AM 35.6 °F 29.2 °F 26.6 °F 70% 29.58 in 10.0 mi SSW 8.1 mph - N/A   Clear
10:12 AM 35.6 °F 28.0 °F 26.6 °F 70% 29.58 in 10.0 mi SW 10.4 mph 16.1 mph N/A   Clear
10:33 AM 35.6 °F 27.1 °F 26.6 °F 70% 29.57 in 10.0 mi SW 12.7 mph - N/A   Clear
10:53 AM 37.4 °F 30.3 °F 28.4 °F 70% 29.58 in 10.0 mi SW 10.4 mph - N/A   Clear
11:13 AM 37.4 °F 29.8 °F 28.4 °F 70% 29.56 in 10.0 mi SW 11.5 mph - N/A   Clear
11:33 AM 39.2 °F 33.0 °F 28.4 °F 65% 29.57 in 10.0 mi SW 9.2 mph - N/A   Clear
11:53 AM 39.2 °F 33.6 °F 30.2 °F 70% 29.57 in 10.0 mi WSW 8.1 mph - N/A   Clear
12:13 PM 41.0 °F 33.9 °F 30.2 °F 65% 29.56 in 10.0 mi SW 12.7 mph - N/A   Clear
12:33 PM 41.0 °F 34.3 °F 32.0 °F 70% 29.57 in 10.0 mi SW 11.5 mph - N/A   Clear
12:53 PM 42.8 °F 37.0 °F 32.0 °F 66% 29.57 in 10.0 mi SW 10.4 mph - N/A   Clear
1:12 PM 42.8 °F 36.2 °F 30.2 °F 61% 29.57 in 10.0 mi SW 12.7 mph 17.3 mph N/A   Clear
1:33 PM 42.8 °F 37.0 °F 32.0 °F 66% 29.56 in 10.0 mi SW 10.4 mph - N/A   Clear
1:53 PM 42.8 °F 36.6 °F 32.0 °F 66% 29.56 in 10.0 mi SW 11.5 mph - N/A   Clear
2:12 PM 42.8 °F 37.0 °F 32.0 °F 66% 29.55 in 10.0 mi SW 10.4 mph - N/A   Clear
2:33 PM 42.8 °F 37.0 °F 32.0 °F 66% 29.54 in 10.0 mi SW 10.4 mph - N/A   Clear
2:53 PM 42.8 °F 37.5 °F 32.0 °F 66% 29.55 in 10.0 mi West 9.2 mph - N/A   Clear
3:12 PM 41.0 °F 35.8 °F 32.0 °F 70% 29.55 in 10.0 mi West 8.1 mph - N/A   Clear
3:33 PM 41.0 °F 35.2 °F 32.0 °F 70% 29.54 in 10.0 mi SW 9.2 mph - N/A   Clear
3:53 PM 39.2 °F 33.6 °F 32.0 °F 75% 29.55 in 10.0 mi WSW 8.1 mph - N/A   Clear
4:13 PM 39.2 °F 32.5 °F 32.0 °F 75% 29.55 in 10.0 mi SW 10.4 mph - N/A   Clear
4:33 PM 39.2 °F 31.6 °F 32.0 °F 75% 29.55 in 10.0 mi SW 12.7 mph - N/A   Scattered Clouds
4:52 PM 39.2 °F 32.0 °F 32.0 °F 75% 29.55 in 10.0 mi SW 11.5 mph - N/A   Mostly Cloudy
5:13 PM 39.2 °F 32.0 °F 32.0 °F 75% 29.55 in 10.0 mi SW 11.5 mph - N/A   Scattered Clouds
5:33 PM 39.2 °F 32.5 °F 32.0 °F 75% 29.55 in 10.0 mi SW 10.4 mph - N/A   Mostly Cloudy
5:52 PM 37.4 °F 31.4 °F 32.0 °F 81% 29.56 in 10.0 mi WSW 8.1 mph - N/A   Mostly Cloudy
6:13 PM 37.4 °F 30.8 °F 32.0 °F 81% 29.56 in 10.0 mi SW 9.2 mph - N/A   Mostly Cloudy
6:33 PM 37.4 °F 30.3 °F 32.0 °F 81% 29.56 in 10.0 mi SW 10.4 mph - N/A   Mostly Cloudy
6:52 PM 37.4 °F 29.8 °F 32.0 °F 81% 29.56 in 10.0 mi SW 11.5 mph - N/A   Overcast
7:13 PM 37.4 °F 30.3 °F 32.0 °F 81% 29.57 in 10.0 mi SW 10.4 mph - N/A   Overcast
7:33 PM 37.4 °F 30.8 °F 32.0 °F 81% 29.56 in 10.0 mi SW 9.2 mph - N/A   Overcast
7:52 PM 37.4 °F 30.3 °F 32.0 °F 81% 29.57 in 10.0 mi SW 10.4 mph - N/A   Mostly Cloudy
8:13 PM 35.6 °F 29.9 °F 30.2 °F 81% 29.57 in 10.0 mi SW 6.9 mph - N/A   Scattered Clouds
8:33 PM 35.6 °F 29.2 °F 30.2 °F 81% 29.57 in 10.0 mi SW 8.1 mph - N/A   Scattered Clouds
8:52 PM 35.6 °F 28.6 °F 30.2 °F 81% 29.58 in 10.0 mi SW 9.2 mph - N/A   Clear
9:13 PM 35.6 °F 28.6 °F 30.2 °F 81% 29.58 in 10.0 mi SW 9.2 mph - N/A   Clear
9:33 PM 35.6 °F 29.2 °F 30.2 °F 81% 29.58 in 10.0 mi SW 8.1 mph - N/A   Clear
9:52 PM 35.6 °F 30.7 °F 30.2 °F 81% 29.56 in 10.0 mi SSW 5.8 mph - N/A   Clear
10:13 PM 35.6 °F 29.9 °F 30.2 °F 81% 29.57 in 10.0 mi SSW 6.9 mph - N/A   Clear
10:33 PM 35.6 °F 29.2 °F 30.2 °F 81% 29.56 in 10.0 mi SSW 8.1 mph - N/A   Clear
10:52 PM 35.6 °F 28.6 °F 30.2 °F 81% 29.56 in 10.0 mi SSW 9.2 mph - N/A   Clear
11:13 PM 33.8 °F 27.0 °F 30.2 °F 87% 29.56 in 10.0 mi SW 8.1 mph - N/A   Clear
11:33 PM 33.8 °F 27.0 °F 30.2 °F 87% 29.55 in 10.0 mi SSW 8.1 mph - N/A   Clear
11:52 PM 33.8 °F 28.6 °F 30.2 °F 87% 29.54 in 10.0 mi SSW 5.8 mph - N/A   Clear
12:13 AM 33.8 °F 27.0 °F 30.2 °F 87% 29.55 in 10.0 mi SSW 8.1 mph - N/A   Clear
12:33 AM 33.8 °F 29.6 °F 30.2 °F 87% 29.51 in 10.0 mi South 4.6 mph - N/A   Clear
12:52 AM 32.0 °F 28.7 °F 30.2 °F 93% 29.51 in 10.0 mi South 3.5 mph - N/A   Clear